Theta_e
329 318 307 303 308 305 305 296 289 285 288 282 283 283 284 289 294 294 293 302 306 312 317 321 320 319 316 314 315 318 319 316 313 308 302 312 335 343 344 346 346 346 347 349 352 351 353 354 354 353 354 355 354 355 355 354 354 355 354 354 353 353 353 353 353 353 352 351 351 351 351 351 350 350 350 350 349 349 349 348 349 348 348 349 349 349 348 348 347 345 345 345 346 346 346 346 347
312 309 303 304 307 304 300 291 284 285 282 278 283 284 286 289 296 292 293 307 305 315 321 322 323 323 323 323 323 321 317 327 327 321 330 339 342 343 346 346 346 345 347 350 352 353 353 354 353 353 353 355 354 355 355 354 354 355 354 354 354 353 353 353 353 353 352 352 351 351 351 351 350 349 349 349 349 350 349 349 347 348 347 348 348 347 347 346 346 345 344 345 345 345 346 346 345
308 302 300 305 303 300 297 293 289 280 282 280 279 287 290 291 292 291 293 308 316 320 320 317 318 316 319 319 316 316 311 329 333 335 334 340 337 339 345 346 347 347 348 350 351 351 352 354 354 353 354 354 354 354 354 354 353 352 353 353 353 353 353 353 353 352 352 351 351 351 350 351 350 350 349 349 350 349 348 347 346 345 347 347 347 347 346 346 344 344 344 343 343 345 346 345 345
303 307 300 299 301 294 295 288 280 282 279 274 283 293 291 292 298 298 296 315 319 318 314 315 316 319 318 317 318 323 322 326 334 333 332 334 335 343 345 347 348 348 349 349 349 351 352 353 354 353 353 353 354 354 355 354 353 352 353 353 353 353 354 353 353 352 352 351 350 350 351 351 350 350 350 350 348 347 346 346 347 346 346 346 347 347 346 345 344 344 343 343 344 345 345 344 344
304 307 302 297 295 296 293 289 284 280 282 281 294 295 296 303 307 311 314 316 315 310 314 314 314 320 321 319 320 314 316 329 333 337 335 339 345 344 346 347 347 346 346 348 349 351 352 354 354 353 353 352 353 353 354 354 354 353 353 353 353 353 353 353 353 352 351 351 351 350 350 351 350 350 350 348 347 346 346 345 346 345 346 347 346 345 345 345 344 343 343 343 346 346 345 344 344
299 301 304 303 301 298 292 289 288 284 283 286 291 295 295 300 303 305 308 309 311 311 312 313 314 316 319 322 323 321 327 321 330 336 338 340 344 346 346 347 345 345 346 348 350 351 351 352 353 353 353 353 352 354 354 354 354 353 353 353 353 353 353 353 353 352 351 351 350 350 349 349 350 349 349 348 349 348 347 348 347 346 345 347 346 345 344 344 343 343 343 345 346 346 345 345 344
302 299 297 299 296 294 287 283 283 283 288 290 291 293 295 300 305 306 306 308 312 314 317 316 322 319 317 320 324 329 335 334 334 334 341 344 345 346 346 344 344 344 347 348 350 351 351 353 354 353 353 352 353 353 353 353 353 353 353 353 353 353 353 353 353 353 352 351 350 350 349 350 349 349 349 350 348 348 349 348 347 347 347 348 347 345 343 343 343 343 344 345 345 345 344 343 343
306 300 298 291 288 291 288 285 286 286 288 293 293 295 296 297 303 307 304 308 308 310 315 320 316 316 315 324 316 327 337 337 337 343 345 345 345 344 344 344 343 344 347 349 348 348 352 351 353 352 353 353 352 352 352 352 352 352 353 353 353 353 353 353 353 353 352 351 350 349 348 349 349 348 348 349 349 348 349 348 347 346 346 347 348 346 345 343 343 343 344 344 344 343 342 343 342
301 299 298 292 290 287 282 285 285 288 290 291 293 297 305 300 300 306 306 305 306 311 316 318 316 312 314 320 320 326 332 339 342 346 345 344 343 344 344 343 342 343 345 348 348 348 350 352 352 352 353 354 354 350 352 352 352 352 352 353 353 353 352 353 353 353 352 351 351 350 349 348 348 347 346 343 346 347 348 347 347 347 346 347 348 347 346 344 344 344 343 343 343 343 342 341 341
297 298 292 290 286 287 282 284 286 286 289 290 293 294 298 298 298 304 307 305 306 313 316 320 317 311 319 317 321 324 332 340 342 343 343 343 344 344 343 343 343 343 345 347 348 349 348 352 351 352 352 353 353 353 352 351 352 351 351 351 351 352 352 352 352 352 352 351 351 351 351 349 349 348 347 347 348 348 348 348 347 347 347 347 348 348 346 345 344 343 343 344 343 343 342 341 341
293 292 293 289 284 284 284 282 284 288 289 292 294 296 297 296 297 298 302 305 308 313 316 321 318 317 319 318 320 331 340 341 340 339 343 344 344 343 343 344 344 345 344 345 347 348 348 347 352 351 351 352 352 352 351 351 350 350 350 350 350 352 352 352 352 352 352 351 351 351 350 350 349 348 347 347 347 348 348 348 347 347 346 346 346 347 347 345 345 345 344 344 344 343 342 342 341
291 289 287 282 282 283 282 283 285 289 291 291 292 294 296 297 296 296 296 302 308 312 315 317 316 320 316 317 317 334 338 338 339 341 343 344 343 344 343 344 344 344 345 345 346 346 345 346 348 351 350 350 351 351 351 351 349 349 349 349 350 351 351 352 352 352 352 351 351 351 350 350 350 349 348 348 348 348 348 348 347 347 347 346 346 346 346 347 346 346 345 344 343 342 342 341 340
290 288 285 284 283 285 286 286 286 294 289 289 292 294 295 295 294 296 297 302 309 310 312 316 322 319 311 315 325 334 335 338 341 342 343 343 343 344 344 343 343 343 344 345 344 344 345 346 348 348 349 351 350 350 351 350 349 348 348 349 350 350 351 351 351 351 351 351 351 351 350 350 349 349 348 348 348 348 347 348 347 347 347 346 346 346 346 346 346 346 344 343 342 342 342 340 339
290 289 287 286 285 284 286 286 285 288 285 289 291 294 295 295 295 297 301 304 308 311 312 317 322 320 317 323 326 328 333 339 341 342 342 343 343 343 342 342 342 342 343 343 343 344 344 346 346 347 347 347 348 350 350 350 349 348 346 346 344 343 347 347 350 350 351 351 351 350 350 349 348 349 349 348 347 347 347 348 347 347 347 346 346 346 346 346 346 345 344 343 342 342 341 340 340
297 290 286 285 283 283 283 287 286 286 286 291 293 294 294 302 301 302 305 305 309 310 320 325 322 314 311 317 316 327 332 338 341 341 340 341 342 342 341 341 341 341 341 341 343 344 344 345 346 347 349 349 349 348 348 349 349 346 345 344 344 344 344 344 348 350 350 351 348 348 350 349 348 349 349 346 348 347 347 347 348 347 347 346 345 345 345 346 346 345 344 342 341 341 340 340 340
293 288 285 286 282 284 283 287 286 288 288 290 292 293 297 302 305 305 307 310 309 317 321 316 316 308 314 316 316 330 334 338 338 339 339 338 339 339 340 340 340 340 340 341 341 342 343 343 344 345 346 348 348 348 348 347 349 345 344 346 344 340 342 346 347 349 349 349 347 346 348 348 346 345 346 345 347 346 346 345 347 347 347 346 346 345 345 345 345 345 343 342 341 341 340 341 340
290 288 287 280 283 283 283 287 287 285 288 290 293 293 299 300 304 307 313 318 316 310 309 308 308 316 320 320 325 332 334 337 338 336 335 335 335 335 336 337 338 338 338 339 339 340 342 342 342 343 344 346 348 348 348 347 347 348 346 347 344 344 342 342 342 343 344 344 343 341 344 345 343 343 344 344 345 345 345 346 347 346 347 346 345 345 344 344 345 344 343 342 341 341 340 340 340
293 288 281 282 281 284 286 288 287 291 291 293 293 292 300 300 305 310 314 309 308 307 309 311 322 322 324 328 332 332 333 333 334 333 332 331 332 332 332 334 335 334 335 335 337 339 340 340 341 342 343 344 346 346 348 348 346 346 342 343 345 342 344 340 343 342 346 341 340 340 341 344 341 339 341 345 344 345 345 346 346 345 346 346 345 345 344 343 343 344 343 342 341 340 334 329 333
288 284 283 283 282 285 290 290 290 292 292 292 292 291 299 301 305 305 307 304 306 307 308 316 318 322 327 329 330 330 330 330 331 331 329 328 329 329 330 331 332 333 333 335 334 337 338 340 341 341 343 344 345 346 347 347 345 343 341 340 341 344 344 342 338 340 338 339 340 339 341 342 339 340 342 343 343 345 344 346 345 343 344 344 345 345 344 344 343 344 343 342 340 336 327 326 326
288 287 284 283 286 287 290 291 293 291 292 293 292 292 301 302 299 304 305 303 305 307 309 311 315 317 322 325 327 328 328 328 328 327 327 326 328 328 327 328 328 332 333 334 333 333 334 337 340 342 342 343 344 345 346 345 344 343 341 339 340 338 337 339 337 338 338 338 340 338 338 340 339 337 345 345 344 343 343 343 345 343 344 344 344 344 344 343 343 343 342 340 335 330 326 327 326
289 289 285 285 287 290 291 291 293 293 292 292 291 291 299 296 298 305 304 305 303 304 309 313 315 318 321 324 324 325 325 323 322 323 323 323 322 322 325 327 329 329 331 332 333 331 330 335 339 341 342 343 343 342 344 343 343 343 341 341 340 340 337 335 336 337 337 337 337 338 338 338 336 336 337 338 337 338 338 338 340 338 338 340 342 337 338 340 339 335 335 334 329 329 327 326 326
289 289 288 289 288 290 293 292 291 291 291 291 290 296 297 299 305 305 307 303 302 306 309 309 319 322 322 322 323 322 321 319 318 318 318 317 317 317 315 313 315 319 327 331 330 330 332 336 338 340 341 341 343 342 342 344 343 340 340 340 340 340 339 337 336 334 336 336 337 337 340 335 335 333 333 333 335 335 336 336 337 336 336 337 339 336 336 336 336 335 334 333 330 329 329 329 329
288 286 288 289 291 291 292 294 291 293 292 291 291 294 296 301 302 304 301 301 303 304 309 313 321 323 325 325 322 320 318 317 315 316 314 313 312 311 310 310 314 319 324 323 322 327 333 337 339 340 340 341 341 342 340 339 338 338 338 338 339 337 338 337 336 335 335 335 337 339 337 335 335 333 332 333 335 335 335 336 336 336 336 336 338 338 337 337 336 335 333 332 328 328 328 325 325
290 287 286 291 289 291 291 293 292 291 292 293 293 293 295 298 300 301 300 297 301 305 311 318 320 321 323 321 320 320 318 315 314 313 313 313 311 309 309 310 311 313 318 316 322 326 334 336 338 339 339 339 339 339 337 336 336 337 339 341 337 340 338 336 335 336 336 335 336 335 337 334 334 332 332 333 336 336 336 336 336 336 338 337 336 336 336 335 335 333 331 327 328 327 327 327 326
289 288 289 290 291 290 291 291 290 290 291 292 293 294 292 299 299 300 299 299 302 308 315 318 318 318 317 317 317 315 314 312 311 309 309 308 308 310 307 307 310 315 316 316 317 326 331 334 337 337 338 338 336 336 334 334 335 336 336 334 334 340 332 332 334 336 337 336 335 335 336 332 331 332 332 333 334 335 336 334 333 335 338 336 334 333 334 334 333 331 328 327 323 325 324 325 325
289 291 292 290 291 292 292 291 291 290 291 292 294 291 293 293 299 301 300 300 306 309 314 315 315 315 314 314 314 313 312 310 309 308 308 308 308 307 306 308 311 316 316 315 318 320 327 334 336 336 336 335 334 333 331 330 330 332 333 334 336 335 328 329 331 333 334 334 332 333 334 333 332 332 332 331 332 334 334 332 331 332 334 336 334 332 332 332 331 328 326 326 326 324 325 325 327
290 290 290 291 293 291 291 290 290 289 292 290 292 291 295 295 296 294 298 304 306 309 311 313 314 313 313 313 311 310 310 309 309 308 308 307 306 307 306 307 312 312 313 314 315 317 327 332 333 334 334 335 332 332 328 329 329 330 331 329 329 329 330 332 330 330 330 331 332 333 333 333 332 332 331 331 331 332 332 329 328 330 332 336 335 333 331 331 330 329 328 327 326 324 325 326 326
291 292 291 290 288 289 289 289 289 290 293 289 292 291 291 291 295 291 293 305 307 307 309 311 312 312 312 310 309 308 309 308 308 308 307 306 306 306 306 308 309 310 313 313 315 316 323 327 329 331 331 331 330 330 330 327 327 329 329 327 328 328 330 329 330 330 332 330 333 333 333 332 332 330 331 332 331 331 331 330 329 330 331 333 335 334 332 332 331 330 330 329 328 327 326 326 326
292 292 289 287 286 290 290 291 291 292 294 289 289 292 289 290 291 292 301 305 305 306 307 310 310 310 310 308 307 307 308 306 307 308 308 307 306 307 307 308 311 311 310 313 312 318 321 321 326 325 326 326 327 327 326 324 324 328 325 323 326 330 331 330 329 330 331 332 332 332 333 333 334 332 332 332 332 332 331 331 330 330 331 333 333 334 333 333 332 331 330 330 328 327 327 327 327
292 289 288 288 283 285 291 290 290 292 292 290 292 284 279 286 287 289 304 305 304 303 303 306 307 307 307 307 306 305 305 306 306 308 308 306 306 306 307 307 311 311 310 308 311 316 318 320 322 320 322 322 323 322 322 322 323 323 321 319 324 322 322 323 329 329 332 331 332 331 331 333 333 332 332 331 333 332 331 331 331 331 332 333 331 333 333 333 332 332 330 329 330 327 326 327 327
290 288 284 281 283 284 288 289 289 293 292 289 293 286 282 285 286 291 303 305 304 302 303 303 304 305 306 305 305 305 304 306 307 307 308 307 306 306 307 308 310 310 310 308 312 313 316 317 319 319 322 320 323 321 322 321 318 322 317 316 317 317 319 318 319 324 327 331 331 331 333 333 333 333 332 331 332 332 331 332 332 333 332 332 330 330 332 332 332 332 331 329 328 327 327 328 328
284 285 280 279 281 283 287 290 290 291 291 291 291 283 285 289 288 292 302 303 304 302 302 303 303 304 306 304 304 303 304 305 306 307 307 307 307 306 307 309 309 310 309 309 311 312 314 314 321 318 318 318 317 319 315 316 315 313 316 322 316 317 317 317 316 320 322 323 327 328 330 333 333 332 332 331 331 330 330 330 330 332 333 332 331 329 330 331 330 330 331 331 328 328 327 327 326
281 285 279 283 281 283 285 290 287 289 291 290 291 285 284 289 289 290 299 304 303 302 302 302 302 303 305 304 303 303 303 304 305 306 307 307 307 307 308 309 310 310 309 309 311 310 312 314 318 315 315 316 315 313 311 310 310 311 313 314 313 313 313 313 315 319 321 320 321 323 325 329 330 331 332 332 331 330 330 329 329 330 333 333 331 330 330 331 329 330 329 331 331 328 328 328 327
276 282 283 283 284 283 283 287 290 289 291 288 289 287 287 288 287 290 297 302 301 301 301 301 301 303 304 304 303 303 304 304 305 306 306 307 307 307 308 312 310 309 309 310 310 311 312 312 311 313 314 315 313 311 310 310 311 312 312 315 319 313 313 314 317 319 318 318 320 321 324 329 330 331 331 330 329 332 331 330 329 330 331 332 331 330 329 330 328 330 329 330 331 330 328 327 327
281 281 281 284 283 283 286 285 291 292 289 288 286 287 288 286 286 291 292 296 300 301 301 302 301 301 302 303 302 302 303 304 306 307 307 307 307 307 308 309 308 308 309 309 309 309 309 309 312 316 313 311 310 311 312 310 311 311 311 312 313 313 314 314 316 317 316 317 317 320 327 329 330 328 330 330 329 330 329 329 329 329 330 331 330 328 327 328 329 330 328 328 331 331 329 329 328
285 284 285 284 283 285 287 287 288 293 290 287 285 285 286 286 288 290 292 293 298 299 299 299 299 299 301 303 302 302 303 304 306 306 306 307 307 307 307 308 307 307 308 308 308 308 308 309 310 311 310 310 311 311 311 310 311 312 313 312 314 313 313 317 314 314 315 316 319 317 317 318 321 321 319 321 324 326 327 327 327 329 330 330 329 328 328 328 328 328 328 327 327 328 331 330 329
288 285 283 284 284 283 285 286 289 292 288 285 287 285 284 286 286 288 290 293 293 295 297 297 297 299 300 302 303 302 302 303 305 305 306 307 307 307 307 306 307 306 306 307 307 307 308 310 311 309 309 311 311 309 308 308 308 307 307 309 310 309 313 312 313 312 314 315 315 315 315 315 315 317 317 315 315 324 323 325 324 325 329 328 326 326 327 327 328 328 327 327 327 326 326 328 330
289 286 284 283 284 288 289 292 292 293 289 284 286 286 285 287 288 289 291 291 294 294 295 295 297 298 300 302 303 302 302 303 305 305 306 306 306 306 306 307 308 306 306 306 307 307 307 308 309 309 309 310 310 310 310 308 305 309 308 310 308 309 311 311 311 311 313 315 314 313 314 313 314 316 318 317 316 314 316 317 318 320 322 323 324 325 326 327 326 326 326 323 328 327 325 329 330
286 287 285 285 282 283 287 289 291 293 291 285 285 286 286 287 289 290 291 290 290 294 297 299 298 298 300 301 302 303 302 302 302 304 305 306 306 306 306 307 307 307 307 306 306 306 307 308 308 309 310 310 309 311 308 307 305 306 307 306 311 308 307 310 310 314 314 311 310 311 312 311 313 314 315 318 316 316 317 318 318 319 320 322 320 320 322 322 324 325 324 323 323 326 326 329 328
283 283 285 284 283 286 282 286 289 291 289 288 288 288 286 287 288 289 291 292 291 291 292 296 298 299 300 301 303 304 303 302 302 303 305 306 306 306 306 306 307 306 306 305 304 306 308 310 307 309 310 310 310 312 311 305 308 306 307 310 307 307 309 314 309 309 309 309 310 310 311 310 312 313 313 315 314 314 315 315 316 316 316 318 316 316 318 319 321 322 324 325 325 321 322 324 328
284 286 284 284 287 286 286 285 289 288 291 289 286 284 284 283 286 288 292 292 292 293 293 292 293 297 301 302 301 304 304 303 303 303 304 305 306 306 306 307 306 306 306 305 305 306 309 309 309 309 310 309 310 314 309 309 311 310 310 310 310 310 311 308 309 308 309 314 310 309 309 310 311 312 313 314 317 313 313 314 314 314 315 314 315 315 315 315 317 317 319 321 322 322 321 323 325
281 284 288 287 285 288 287 286 284 280 281 286 286 281 277 281 284 286 289 289 289 290 290 291 292 293 296 299 301 302 304 304 304 304 305 306 307 306 306 306 306 306 306 306 306 307 308 308 308 308 309 309 310 309 308 310 312 310 309 307 306 304 305 306 306 308 308 308 308 308 308 309 310 310 310 313 316 315 312 313 313 314 314 314 314 314 314 315 315 315 316 317 318 321 323 321 320
284 287 288 289 287 288 286 286 285 281 281 285 286 281 274 281 285 287 287 287 289 290 289 291 291 291 293 298 301 300 302 303 303 304 304 305 306 306 306 306 306 306 306 306 306 306 308 309 309 309 310 310 310 309 308 311 309 310 310 309 307 306 306 305 303 304 308 305 306 308 307 308 309 310 310 310 312 313 311 312 313 314 314 314 316 313 313 313 314 315 316 315 315 317 318 316 316
283 287 288 288 288 287 286 285 284 279 283 286 283 280 279 278 282 287 287 288 288 289 290 291 291 292 292 295 298 300 302 303 304 304 304 306 306 307 306 307 307 307 306 306 306 306 307 309 309 309 310 312 310 309 308 309 309 309 308 306 307 305 305 307 305 304 305 309 308 307 307 307 308 309 309 309 311 313 311 310 311 312 313 314 314 312 312 312 312 314 314 314 315 315 315 314 314
286 289 289 287 288 287 287 285 282 282 282 281 278 284 282 276 281 287 288 287 287 289 289 290 291 293 292 293 295 298 301 303 305 304 304 305 306 307 308 307 307 306 307 307 307 305 307 309 310 309 309 311 309 308 309 307 310 309 308 307 307 307 306 307 308 310 308 310 306 306 307 306 306 307 308 308 309 314 315 309 310 311 311 312 314 311 310 311 310 310 311 311 312 313 314 314 313
290 289 288 287 287 286 285 281 282 280 279 275 279 282 280 276 277 282 285 287 286 287 289 290 291 292 293 294 293 295 298 302 304 305 305 305 307 308 308 306 306 306 306 308 306 306 307 309 309 310 309 310 310 308 309 307 307 310 306 306 307 306 308 305 306 307 306 305 306 305 306 306 305 306 305 307 308 310 310 310 310 310 310 312 313 308 308 309 309 309 310 310 310 310 311 312 312
290 288 286 284 282 280 281 278 277 281 272 275 280 281 282 277 277 283 284 287 286 287 288 289 291 293 293 293 293 293 295 299 303 304 305 306 305 305 306 306 305 305 306 307 307 306 307 308 309 309 310 310 310 308 308 307 306 307 307 306 307 307 306 306 306 305 305 304 305 305 305 305 305 305 304 305 307 308 311 312 309 310 312 314 310 308 308 308 308 308 308 308 308 308 308 309 310
289 284 283 283 283 279 280 275 277 272 267 275 277 280 281 276 275 281 283 286 286 287 287 288 290 292 293 293 292 292 294 297 301 303 303 303 304 304 305 305 305 305 305 306 307 307 307 308 309 309 309 309 309 308 308 307 306 307 306 307 307 308 307 307 307 306 306 307 305 305 304 304 305 306 305 306 306 308 310 309 311 309 309 307 307 308 308 308 308 308 308 308 307 307 308 309 307
286 284 282 280 276 270 272 273 274 272 271 279 279 280 281 278 278 284 286 288 289 288 288 289 289 291 292 292 292 291 294 297 299 300 302 303 303 303 304 305 304 304 305 306 307 307 307 308 308 308 309 309 309 308 308 306 306 307 306 306 307 308 308 308 307 307 306 307 305 305 304 306 304 306 306 307 306 306 309 307 307 308 308 309 307 307 307 307 307 307 306 306 306 307 307 307 307
283 283 278 277 273 266 265 266 267 273 277 278 279 280 279 278 282 284 286 288 290 291 292 292 291 290 290 292 293 294 292 294 298 299 301 302 303 303 304 304 305 306 306 306 307 307 308 308 309 309 309 309 309 307 307 306 306 307 306 307 307 309 307 308 307 307 307 307 307 306 306 306 306 307 306 307 307 306 308 310 309 307 308 308 308 306 306 306 305 306 305 305 306 306 306 306 306
283 281 284 281 276 273 268 271 269 273 275 277 279 279 274 276 281 288 289 289 290 290 291 291 292 290 290 290 293 294 294 293 295 298 300 302 303 303 305 305 304 305 305 306 306 308 308 308 309 309 308 309 309 308 307 306 306 306 306 307 307 308 308 307 307 307 307 307 306 307 306 305 306 306 307 307 307 307 307 307 307 307 307 308 308 308 307 306 306 307 307 307 307 305 306 306 305
282 283 283 281 279 277 279 272 275 275 275 274 278 275 276 280 286 288 289 289 290 291 290 291 290 290 290 291 291 292 293 294 295 298 301 301 303 304 305 305 306 305 305 305 305 306 307 308 309 309 309 309 309 309 308 307 307 307 307 306 307 308 310 309 307 307 306 307 307 307 307 306 306 306 305 307 306 307 307 306 308 305 305 306 306 305 305 305 305 305 304 303 304 308 304 304 304
283 284 283 282 284 280 272 275 276 273 272 271 269 278 281 280 286 288 287 288 288 288 288 289 289 289 289 290 290 291 292 293 294 295 298 301 302 304 305 305 305 305 304 305 306 306 307 307 308 309 309 309 309 309 309 308 307 306 306 307 307 307 308 308 308 307 306 306 306 307 307 307 306 305 305 306 306 305 307 307 306 305 305 304 304 305 304 304 304 304 303 302 303 305 306 304 304
283 280 281 287 287 283 279 272 268 264 267 268 275 273 277 278 275 284 287 286 287 287 287 288 288 288 289 289 289 291 291 292 295 297 297 299 302 303 304 305 306 306 306 306 307 308 308 309 309 310 310 309 309 309 309 308 307 307 307 307 307 308 308 309 308 308 307 306 305 306 305 306 305 306 306 307 306 305 306 310 305 305 304 303 304 304 304 303 303 303 302 303 303 303 305 304 303
284 283 285 285 277 279 279 274 269 268 266 263 269 274 274 277 279 283 285 285 285 287 286 286 287 287 288 288 289 290 291 292 293 294 296 298 298 300 302 304 306 306 307 307 308 309 309 309 309 310 311 311 311 310 310 309 308 308 309 308 308 307 308 308 308 308 307 306 306 306 306 307 305 305 308 307 304 305 306 304 304 304 303 303 302 303 303 302 302 301 303 303 302 301 301 302 301
288 286 284 283 280 276 276 275 276 275 267 266 268 275 273 279 277 284 286 284 285 286 286 286 286 287 287 287 289 290 291 291 292 293 295 297 300 301 301 302 303 304 305 307 309 309 309 310 310 310 310 310 311 310 310 309 309 308 309 309 308 308 308 308 308 307 306 306 307 306 306 305 305 307 306 306 305 305 306 304 303 303 302 301 302 301 301 300 300 300 300 300 301 300 300 301 301
283 281 280 281 280 281 279 280 278 277 264 263 264 266 272 276 280 284 285 285 285 285 287 286 287 287 287 287 288 289 290 291 292 293 294 295 297 300 303 302 303 305 306 307 309 310 310 310 310 311 311 311 311 312 311 310 309 308 308 308 308 308 308 308 308 307 307 307 307 307 307 307 306 306 305 305 305 305 304 304 302 304 302 301 300 300 300 299 300 298 299 299 299 300 300 299 303
284 283 281 281 279 280 275 274 277 277 277 269 265 270 274 280 287 287 286 286 286 286 287 287 287 287 286 287 287 288 290 290 291 292 293 294 295 297 298 301 304 304 304 305 306 308 308 310 312 312 312 312 312 311 312 311 310 309 308 308 309 309 309 308 308 307 307 307 307 307 307 306 306 306 305 305 305 304 304 302 302 302 300 300 299 299 298 299 299 298 298 300 299 299 299 299 299
Wind_Speed
2 3 3 2 1 2 1 4 1 2 1 3 3 1 2 1 2 4 2 2 1 1 1 3 8 5 2 3 6 3 1 10 3 9 6 1 1 8 9 10 10 10 10 7 5 5 5 8 10 11 13 13 15 15 15 15 14 13 13 13 14 14 13 13 13 13 14 14 14 14 14 14 14 13 12 12 12 11 11 13 13 14 14 13 13 12 12 12 13 13 13 13 13 13 13 13 14
2 2 1 0 1 2 1 1 3 1 5 2 7 1 3 3 0 4 2 1 1 2 3 5 8 9 8 11 5 4 5 6 1 1 2 1 6 7 7 9 10 12 9 7 6 6 6 7 11 11 12 14 14 14 15 16 15 14 13 13 14 15 14 14 13 13 13 13 14 13 14 14 14 13 12 12 11 9 8 9 12 14 13 14 13 12 12 13 13 13 13 13 14 13 13 13 14
1 3 1 2 2 2 2 3 2 1 2 0 3 6 2 4 3 4 5 1 4 7 4 5 5 3 2 2 5 2 1 3 4 2 3 2 9 3 8 9 9 10 10 6 5 5 5 5 10 11 11 13 13 14 15 16 16 15 14 14 14 14 14 14 13 13 13 13 13 14 13 13 13 13 12 12 11 10 10 11 9 7 11 13 13 13 13 13 13 13 13 13 14 14 14 14 14
1 0 1 3 1 3 1 3 3 7 2 4 3 2 1 2 5 8 4 3 4 1 1 3 5 2 3 6 2 3 4 2 3 3 4 2 0 7 9 10 10 9 8 6 5 4 5 8 11 9 10 12 13 14 15 16 16 15 14 14 14 14 14 14 14 14 12 12 12 13 13 13 13 13 12 12 12 11 10 9 10 11 11 10 11 12 13 12 13 13 13 13 15 15 14 14 13
1 1 1 3 3 0 1 1 3 3 2 5 1 4 3 1 2 2 5 3 2 3 1 3 4 4 1 5 1 2 1 1 1 2 2 1 5 7 9 10 10 10 8 7 6 5 5 11 11 9 10 11 12 14 14 15 15 15 15 14 14 14 14 14 14 14 14 13 12 12 12 13 13 13 13 13 12 12 11 10 9 10 8 9 10 11 12 11 12 12 13 14 15 15 14 13 13
1 1 2 2 1 1 4 1 0 2 6 4 1 1 2 1 3 2 1 1 3 2 3 2 4 4 3 2 1 3 1 1 1 3 2 5 8 10 10 9 10 9 8 6 6 4 5 11 10 9 9 11 11 13 14 15 15 14 14 14 14 13 13 13 13 14 14 14 12 12 12 12 13 14 13 14 13 13 13 12 11 11 10 8 10 10 12 12 11 11 13 14 16 15 13 12 12
1 3 4 3 2 4 4 2 3 3 6 6 0 1 2 2 1 2 3 2 3 2 4 1 4 6 5 1 2 2 1 3 2 1 2 7 10 9 8 8 10 10 8 7 7 6 7 10 8 8 8 11 11 12 14 14 16 15 14 14 13 13 13 13 12 13 14 13 13 12 12 12 12 13 13 14 15 15 13 12 12 11 10 8 10 10 10 12 12 10 13 14 14 14 12 11 10
1 2 1 2 1 2 0 1 2 5 2 5 2 1 1 2 2 0 3 2 2 2 4 2 2 5 1 4 3 2 6 3 4 8 10 9 9 9 8 8 10 9 8 7 5 5 10 11 8 8 9 9 12 13 12 14 15 13 13 14 13 12 13 12 12 11 12 12 13 13 12 11 12 12 11 10 14 15 14 13 13 12 10 9 10 10 10 12 12 12 13 13 13 13 11 10 8
3 4 0 4 0 2 1 3 3 2 7 2 5 6 6 5 2 2 0 1 1 1 1 0 4 6 3 4 3 4 2 3 6 10 10 10 11 9 6 8 10 9 8 7 5 6 6 9 7 7 8 9 10 14 13 12 12 13 13 12 12 12 12 12 12 11 11 11 11 12 12 12 12 12 13 11 12 13 13 13 13 12 10 8 9 11 11 13 14 14 14 14 13 12 11 9 7
2 1 1 2 3 3 2 6 1 2 3 5 2 4 4 4 3 3 4 2 2 3 3 4 3 2 4 6 1 3 2 3 7 9 9 10 10 9 9 8 9 10 8 8 7 6 5 9 6 7 6 8 9 11 13 12 12 12 12 11 11 12 11 11 11 11 10 10 10 11 11 12 11 11 12 12 12 11 12 12 12 12 11 8 8 11 11 11 13 14 13 13 13 12 10 9 8
0 4 2 3 1 1 4 6 2 6 3 6 7 8 11 5 3 3 5 2 4 6 1 2 4 4 3 2 0 3 4 5 9 9 9 11 11 10 9 8 8 8 9 8 7 5 5 4 9 8 7 8 8 9 11 11 11 10 11 11 11 11 11 11 11 10 10 10 11 11 11 11 11 10 10 11 11 11 11 11 11 11 11 9 7 7 11 11 11 12 12 11 12 12 10 9 8
1 1 1 2 2 4 4 2 3 6 6 3 4 4 2 5 4 2 5 3 3 6 4 3 3 3 5 2 1 3 6 3 6 9 10 10 9 9 9 7 8 8 9 8 7 6 4 3 4 9 10 8 8 9 10 10 10 10 10 10 10 10 11 11 11 10 10 10 10 11 11 11 12 10 10 10 10 11 11 11 11 11 11 10 8 7 8 10 10 10 10 9 10 11 11 10 8
3 1 4 3 2 1 1 0 3 2 4 4 3 2 1 3 5 10 7 8 8 8 3 6 5 2 2 2 1 4 7 5 6 9 9 8 9 8 8 8 8 10 8 7 8 7 5 4 4 4 7 11 9 8 9 10 9 9 10 9 9 11 12 11 10 10 10 10 10 10 11 11 10 11 11 10 11 11 11 11 11 11 11 10 8 7 8 10 10 10 10 9 8 9 11 10 8
3 5 5 3 1 1 1 2 0 1 4 3 2 4 0 1 5 7 5 7 7 10 2 9 5 3 2 3 1 5 5 7 8 7 8 9 8 9 9 10 8 8 7 6 7 6 5 5 4 4 5 5 5 8 9 9 8 10 9 5 8 5 9 9 10 10 10 10 10 10 11 11 11 10 11 11 11 10 10 10 11 11 11 11 9 7 7 9 11 10 10 9 7 7 10 10 8
0 2 3 2 0 1 2 1 1 1 5 1 3 2 4 4 1 3 11 9 4 1 3 5 4 1 5 9 6 7 7 9 8 8 8 8 9 9 11 8 8 7 6 5 5 7 6 6 5 5 5 5 5 4 4 7 10 12 9 10 10 10 8 7 8 9 10 10 10 10 10 12 11 11 11 11 10 10 10 10 9 10 10 10 9 7 6 7 10 10 10 9 7 6 8 9 8
3 4 2 1 1 1 2 1 1 0 7 2 4 6 2 3 1 6 3 3 4 3 5 5 1 1 1 7 2 9 9 9 7 8 8 8 7 7 8 9 8 7 6 5 5 5 6 6 6 6 5 4 4 4 5 4 8 11 9 11 11 8 6 8 8 8 8 9 9 8 9 9 10 9 12 10 11 10 9 7 8 9 10 10 8 7 5 5 8 10 10 9 7 5 7 9 9
2 3 0 3 2 2 2 2 2 2 6 4 3 5 1 2 2 3 1 5 15 4 4 2 1 2 4 1 6 12 9 9 9 9 8 6 6 6 6 6 7 7 5 4 4 4 6 6 6 6 6 7 5 5 4 4 5 10 9 10 9 12 10 6 6 6 6 4 5 5 5 5 4 4 6 5 11 7 8 8 9 10 10 9 9 8 5 3 4 9 9 9 8 6 7 9 9
1 1 4 1 3 1 4 4 6 1 2 7 8 5 1 2 2 2 9 9 6 5 6 2 7 7 5 4 11 11 9 10 9 10 7 6 5 5 5 5 7 8 6 4 3 4 6 5 6 6 6 6 5 4 3 3 3 5 4 4 5 5 7 6 3 4 7 4 4 3 4 5 5 5 4 7 5 6 8 9 9 10 10 10 9 9 8 5 3 2 7 7 7 8 6 3 4
2 2 2 5 3 5 5 4 5 1 6 6 6 4 2 1 2 1 5 4 5 7 3 3 7 7 9 9 12 11 10 9 9 8 9 7 5 6 5 4 5 6 6 4 3 3 3 5 6 6 7 6 5 5 3 4 5 4 4 5 4 6 5 6 3 2 3 4 5 4 3 4 4 4 5 5 5 9 8 10 10 10 9 10 10 9 8 6 5 3 4 6 6 9 4 2 2
2 3 2 6 5 3 5 4 6 4 4 9 7 5 2 1 1 0 4 5 4 8 8 3 5 7 8 8 10 10 10 9 9 9 10 7 6 6 6 5 4 4 5 4 4 2 3 3 6 7 6 6 4 4 4 4 4 4 4 4 4 3 4 2 4 3 3 3 3 2 2 3 3 3 6 8 8 4 5 8 10 10 10 10 11 8 9 7 6 4 2 7 4 3 3 2 2
1 1 3 3 3 1 5 5 8 8 3 5 5 3 3 1 1 2 7 9 1 2 6 12 13 12 11 10 10 9 10 9 7 7 8 7 5 3 4 4 5 4 3 3 3 3 3 3 4 5 6 5 5 3 4 4 4 4 5 4 3 5 4 3 3 4 3 4 3 1 1 3 3 3 4 3 4 4 2 0 2 5 3 4 7 3 3 4 4 1 1 4 3 2 3 2 2
3 6 4 5 1 2 8 4 6 5 3 2 4 1 1 1 3 7 10 10 8 9 11 4 12 16 16 13 11 9 9 9 7 7 8 9 10 7 4 3 2 3 3 4 4 3 3 3 4 5 6 6 4 3 3 4 4 3 4 4 3 3 4 4 3 3 3 3 3 2 3 4 3 3 3 3 3 4 4 5 4 4 4 3 3 4 3 3 3 2 1 2 2 2 3 4 3
3 3 3 6 5 4 4 1 4 0 5 5 2 2 3 2 3 4 2 1 2 4 2 4 12 18 16 14 14 11 10 9 8 8 8 8 7 5 6 4 6 6 4 3 3 3 3 4 5 5 6 5 5 4 3 3 3 2 2 3 4 4 4 4 4 4 3 4 4 4 4 4 4 3 3 4 5 4 5 5 4 3 4 4 3 4 4 3 3 3 2 2 2 2 2 4 3
2 4 1 6 3 6 7 5 3 5 4 7 1 3 2 5 4 3 2 2 4 2 6 5 4 4 12 13 10 14 12 10 8 6 6 8 7 7 5 6 4 4 5 3 3 3 4 5 5 6 5 5 4 4 4 3 3 4 4 5 3 4 4 4 4 4 4 4 4 4 4 5 5 5 4 4 5 4 5 4 3 4 4 4 4 4 4 3 3 3 2 3 2 1 1 2 4
3 3 3 4 1 5 6 6 5 4 6 8 2 1 5 7 5 4 5 3 2 4 9 9 8 8 5 7 10 9 8 6 6 4 3 4 5 5 4 5 5 6 6 4 4 5 4 5 6 6 5 5 4 4 4 3 4 4 3 3 3 5 3 3 4 4 4 4 3 4 4 5 4 4 5 5 4 5 5 4 3 3 3 3 3 3 4 4 4 3 3 3 2 2 1 1 2
4 6 1 4 6 6 7 7 7 3 4 3 1 2 2 2 1 5 2 1 2 7 10 10 10 9 8 8 7 9 8 7 6 6 6 4 5 8 5 6 6 7 6 5 5 4 4 5 6 6 5 5 4 4 4 4 4 4 4 4 3 4 2 0 3 4 4 4 4 3 4 5 6 6 5 5 5 5 5 5 4 2 2 3 4 4 3 4 4 3 3 3 3 3 3 2 2
3 3 4 6 10 5 5 3 1 3 3 3 5 2 1 1 2 3 0 1 5 10 10 8 12 11 9 8 6 5 8 7 8 6 6 4 5 8 6 5 6 7 6 6 5 5 5 6 6 6 6 6 4 4 3 4 4 4 4 3 3 3 2 2 2 2 3 4 4 4 4 5 5 4 4 4 4 4 4 4 4 3 3 3 4 3 3 3 3 4 4 4 4 3 3 2 2
3 4 4 6 6 5 5 4 5 1 2 5 4 2 0 2 1 2 2 4 7 13 10 10 9 10 9 6 6 4 5 5 5 7 11 10 9 8 8 8 7 7 8 7 6 5 6 6 7 6 6 5 5 5 4 4 4 4 4 3 3 1 2 2 2 2 3 2 1 1 2 2 1 1 2 3 4 4 3 4 6 5 5 1 1 3 3 3 3 3 3 3 3 2 2 2 2
2 1 4 7 7 3 4 0 3 1 1 3 4 1 1 1 3 3 2 4 5 10 11 10 10 7 6 6 6 5 7 6 5 6 9 7 5 5 9 5 10 8 4 8 8 7 8 7 7 5 5 4 6 6 5 3 4 4 4 3 4 4 3 2 1 1 4 4 4 3 3 2 2 1 1 2 2 2 2 2 3 5 4 2 1 2 4 3 3 2 2 2 1 1 2 3 2
2 3 1 6 6 4 5 2 2 1 0 1 1 3 5 7 4 3 2 8 7 8 5 6 5 6 5 6 6 5 4 5 7 8 7 6 6 6 9 6 6 8 7 4 5 7 5 4 5 5 5 6 5 4 4 4 4 4 2 2 2 3 3 4 2 2 1 2 1 1 1 1 2 3 3 3 3 2 1 0 2 3 4 3 2 2 3 3 3 2 1 0 2 2 3 3 4
2 3 5 0 2 1 6 2 5 1 0 5 2 3 7 6 5 1 3 7 14 10 7 6 6 5 6 6 6 6 5 5 6 6 5 5 5 4 6 7 5 5 6 4 6 7 5 5 5 5 5 5 5 4 5 4 3 4 3 3 2 2 2 4 4 3 3 3 3 3 2 1 1 2 1 3 2 2 1 2 4 4 3 3 3 1 3 4 4 3 3 1 1 2 3 3 3
2 2 2 4 3 2 9 2 4 0 3 6 3 2 7 6 4 4 5 6 8 11 9 8 7 7 8 6 6 5 6 4 5 5 5 5 6 7 8 9 6 5 9 8 5 5 6 6 6 6 5 5 4 4 3 3 4 4 3 3 3 2 3 3 4 4 2 1 2 3 1 1 1 2 1 0 1 3 1 4 0 1 2 4 5 7 6 4 3 3 3 2 0 2 3 3 2
5 3 1 1 2 2 3 3 5 4 1 3 2 6 5 4 4 3 3 8 8 10 8 9 9 9 9 7 7 6 4 5 5 7 6 6 6 5 7 8 9 8 8 8 8 6 6 5 4 6 6 5 4 3 3 3 4 4 3 2 2 2 4 3 3 4 3 2 1 1 1 1 3 3 2 1 2 3 4 1 4 0 0 2 3 5 3 1 3 1 2 2 2 2 2 4 4
2 2 2 1 1 1 1 7 2 5 1 2 1 2 6 1 8 2 1 1 5 7 8 7 8 9 9 7 5 6 7 8 11 11 9 7 7 6 5 5 7 6 5 7 8 9 8 6 6 5 5 4 4 4 3 4 4 4 4 3 3 4 3 3 4 3 2 2 2 1 2 2 2 2 2 1 2 4 3 0 1 2 3 2 2 4 3 2 5 5 3 3 4 3 4 5 4
1 1 1 1 1 1 2 0 1 3 3 2 3 2 10 4 4 1 2 0 5 8 11 10 9 6 4 4 4 5 7 9 13 8 6 7 6 5 4 4 4 4 5 5 5 4 5 5 6 5 6 5 4 5 4 5 5 5 4 4 5 4 4 4 3 4 3 3 3 3 4 3 3 3 3 1 1 1 1 3 4 2 1 2 3 2 3 2 2 2 3 2 2 4 4 3 2
2 5 1 1 2 0 2 2 2 2 1 0 0 3 5 4 1 0 1 2 5 4 0 1 2 3 3 5 5 6 7 11 2 1 5 5 5 5 4 4 4 4 5 5 5 5 5 5 5 6 6 6 5 5 5 5 5 4 5 4 6 4 3 4 4 3 3 4 4 4 4 3 2 2 2 2 2 2 3 3 2 1 2 3 3 3 2 1 2 3 4 4 3 2 2 3 4
4 4 4 2 2 3 4 3 3 1 1 0 0 4 4 2 4 3 3 2 3 3 5 4 4 4 5 5 7 7 7 7 2 3 5 6 5 4 3 4 4 4 4 5 6 6 6 8 8 8 6 7 8 6 4 5 4 3 3 3 5 1 3 3 3 2 4 4 4 4 4 4 3 3 3 3 3 3 4 3 2 3 3 3 4 4 3 3 3 3 3 2 3 3 2 1 3
3 3 3 1 2 0 2 1 2 4 1 1 0 1 4 5 3 2 1 2 8 8 6 4 4 4 5 6 7 8 6 1 2 3 4 4 3 4 4 4 5 7 5 4 7 8 6 5 7 8 6 6 7 8 7 4 3 5 5 4 3 3 4 5 3 2 3 4 4 3 3 3 3 3 2 3 4 4 4 3 3 4 4 4 4 3 3 1 1 2 2 3 3 2 2 2 2
2 2 2 1 2 4 8 2 3 3 0 4 2 4 4 4 4 1 3 6 5 8 11 12 12 9 8 9 8 6 6 7 5 4 4 6 5 5 4 5 5 5 8 8 6 6 6 6 5 7 7 8 6 6 6 5 2 1 4 3 5 3 1 0 2 2 2 5 4 3 3 3 3 3 3 3 5 5 5 5 4 4 6 5 6 6 5 4 4 4 4 3 2 3 3 2 2
4 3 1 3 2 1 4 2 3 4 2 2 1 2 7 8 4 5 4 5 4 4 5 7 6 12 12 13 13 12 12 9 10 11 11 6 6 5 5 6 7 5 5 5 5 7 6 6 5 6 7 6 7 5 4 4 4 3 3 5 3 4 3 2 3 3 3 4 4 3 3 3 3 3 3 4 5 5 5 6 5 6 6 5 6 6 5 6 6 6 5 4 2 4 2 1 1
1 1 1 1 0 2 4 3 4 2 1 2 2 3 7 4 2 2 1 0 0 2 2 5 6 6 5 2 3 9 15 15 13 9 7 9 9 12 11 8 6 7 7 8 8 8 7 9 8 7 8 7 6 4 5 6 6 5 4 4 4 6 5 4 3 2 2 2 3 4 2 2 3 3 3 4 5 5 5 5 6 6 6 5 5 6 6 5 6 6 6 6 4 2 3 2 2
2 4 6 4 2 1 1 2 3 7 3 4 3 3 4 4 5 7 6 5 2 2 2 4 5 4 3 6 10 9 9 8 12 15 16 17 16 7 5 8 9 8 9 7 7 8 8 8 6 5 5 5 6 4 6 7 7 7 6 6 4 3 5 5 5 5 2 2 3 0 2 3 3 3 4 4 4 5 6 5 5 6 6 6 6 6 5 5 7 7 6 5 6 5 3 4 4
1 5 7 4 3 3 3 1 2 1 1 3 2 3 5 6 2 2 3 4 8 3 3 5 4 4 4 8 9 9 12 11 10 8 7 7 7 9 10 11 12 11 8 6 7 7 7 8 8 7 7 6 5 5 5 6 6 7 8 8 7 8 8 4 2 2 5 2 2 3 2 2 2 3 3 4 5 4 5 5 6 6 6 6 4 6 7 6 5 5 5 7 5 5 5 6 5
2 2 6 6 5 3 3 3 4 2 1 2 4 3 2 3 6 2 4 4 6 6 7 7 0 3 5 7 9 9 11 12 13 15 14 13 13 14 17 17 13 11 7 7 8 8 8 9 9 9 7 6 6 6 6 6 8 6 5 5 5 6 7 7 5 4 2 3 3 3 2 3 3 2 3 4 4 4 5 5 6 6 7 6 6 6 6 4 5 5 5 6 6 6 6 6 5
3 2 6 5 4 4 4 4 3 0 0 5 5 1 0 2 7 5 3 4 5 7 7 6 8 5 3 6 10 12 13 15 16 14 14 14 14 15 14 13 9 8 10 12 11 8 7 8 9 7 7 6 6 6 7 5 6 8 7 6 4 4 3 3 4 3 4 3 4 2 3 2 3 2 2 3 3 4 4 5 6 6 7 6 5 6 5 5 6 6 6 6 6 6 5 5 5
2 5 7 7 7 6 4 4 4 1 2 4 3 1 2 5 5 6 3 0 4 5 6 6 5 7 10 11 7 10 12 13 13 16 15 13 14 15 10 4 6 7 6 5 4 6 7 7 8 8 8 7 7 7 7 6 5 6 6 5 6 5 2 2 4 5 4 3 4 3 3 3 2 3 3 4 3 4 5 5 6 6 6 6 5 5 5 5 5 6 5 5 5 6 5 5 5
4 4 6 4 8 4 3 6 3 4 0 5 7 2 2 4 4 6 4 0 1 5 4 3 6 8 10 10 10 7 8 10 11 13 12 11 6 4 7 9 7 6 7 7 8 8 7 8 8 9 10 7 6 7 7 8 6 6 7 7 6 6 4 4 5 4 4 3 4 4 4 4 2 3 3 4 3 4 4 4 6 5 4 5 5 6 5 5 5 5 5 6 6 6 5 5 5
2 1 2 4 1 6 3 4 4 1 3 6 3 2 2 4 4 5 4 5 5 5 4 4 6 7 8 7 6 6 4 6 7 6 4 2 4 6 7 8 10 9 9 10 9 8 9 8 8 9 8 7 6 7 7 7 7 7 6 7 8 7 7 6 7 7 7 7 5 5 3 3 2 2 2 4 3 3 5 5 5 5 5 5 5 5 5 5 5 5 5 5 5 5 5 5 5
6 4 6 2 2 4 2 2 2 3 5 0 0 1 1 4 8 3 7 6 6 3 4 2 3 6 7 5 4 3 2 2 3 3 5 6 6 7 9 8 9 11 13 14 13 11 9 8 9 11 10 8 7 7 8 8 7 8 8 7 6 6 7 7 7 7 6 7 6 5 5 5 3 3 2 4 3 4 4 6 5 6 5 4 4 4 4 5 5 5 5 5 5 5 5 5 5
4 2 3 3 0 1 2 3 1 4 5 3 1 1 1 4 6 1 2 5 4 3 3 3 3 3 6 5 4 5 4 1 1 4 3 4 6 6 5 7 9 10 11 12 11 11 11 9 10 12 12 9 7 7 8 8 9 8 8 7 7 6 7 7 6 7 7 6 7 7 7 7 7 6 5 5 5 4 3 4 5 6 6 5 5 5 4 4 5 5 4 5 4 3 4 5 5
6 3 8 6 6 4 2 3 4 6 5 1 2 2 4 1 3 2 2 3 4 3 3 3 4 4 4 4 6 9 7 4 1 2 4 5 5 5 6 7 5 4 4 6 8 10 10 10 11 12 10 9 9 10 8 9 9 8 7 7 7 6 7 7 7 6 6 6 6 6 6 5 6 6 7 5 5 5 5 5 5 6 5 5 5 4 4 5 5 4 4 5 4 3 4 4 4
0 2 5 5 5 6 4 4 3 1 1 1 1 3 3 3 2 4 1 3 4 4 3 2 1 2 3 9 10 8 7 6 4 2 1 1 4 7 7 7 7 7 6 5 4 4 7 9 9 11 13 12 10 9 9 9 9 8 7 8 8 7 6 6 5 4 5 6 7 7 7 7 7 6 4 5 5 6 6 6 5 6 5 5 5 5 5 5 4 5 4 5 4 1 4 4 3
2 4 4 4 4 8 5 1 2 3 4 5 1 4 3 6 2 2 3 3 3 3 2 2 4 3 7 8 7 7 7 7 6 6 2 1 2 1 4 5 5 5 4 6 6 6 5 3 4 6 6 5 8 9 10 8 8 7 8 7 7 6 7 7 8 8 7 6 5 6 6 7 5 5 6 4 6 5 6 7 6 6 5 5 4 4 5 5 5 5 4 4 5 3 4 4 3
6 1 3 1 2 5 4 3 2 3 3 6 1 5 1 2 2 2 1 2 2 2 2 1 3 5 9 6 5 6 6 6 7 8 6 3 1 4 4 4 5 5 5 6 7 6 6 6 7 9 8 9 8 6 6 7 8 8 8 8 8 9 9 8 7 7 6 6 5 5 3 4 6 6 5 5 5 6 6 6 7 5 5 4 4 4 5 4 4 4 3 3 4 4 3 3 3
3 2 3 1 2 1 3 4 1 1 2 2 1 1 3 5 4 2 5 4 2 1 3 4 6 6 6 5 5 5 6 8 9 9 10 8 5 1 3 4 4 5 5 5 5 6 6 5 5 6 8 8 6 7 8 6 6 6 7 9 9 9 8 7 7 6 6 7 8 7 7 7 5 5 5 5 5 6 6 5 6 6 5 5 5 5 5 4 4 4 2 3 2 2 2 1 1
3 2 3 0 4 2 1 3 2 4 3 1 5 1 4 5 4 9 8 5 2 1 3 4 4 4 4 5 5 6 7 7 6 7 7 9 9 8 2 1 3 4 6 6 7 6 7 6 7 7 5 5 6 7 6 8 9 8 7 6 6 8 8 9 8 7 7 8 8 8 7 5 7 6 6 7 7 7 6 6 5 6 5 5 5 5 5 5 5 4 3 3 3 3 2 1 3
1 3 2 1 2 1 4 1 1 2 3 4 2 2 4 4 4 3 5 5 3 2 1 2 3 4 4 4 4 4 5 5 5 5 7 9 9 9 7 4 1 0 1 4 6 8 8 7 8 8 9 9 8 8 8 9 4 5 5 8 9 7 8 8 7 8 9 9 8 8 8 7 6 7 7 7 7 7 7 6 6 4 4 4 3 5 4 5 4 4 4 3 4 4 3 2 0
1 2 2 5 5 2 1 5 2 2 2 3 3 5 7 7 2 2 5 4 2 2 1 1 2 4 4 4 4 4 5 5 4 4 5 5 6 7 8 8 7 4 2 0 1 1 4 7 8 8 9 10 11 10 10 8 6 7 7 7 7 7 8 7 9 9 9 9 8 8 6 5 7 6 7 8 8 6 6 6 5 4 4 4 4 5 4 4 5 4 4 3 4 4 3 1 2
Wind_Direction
292 309 288 277 68 132 76 360 163 308 67 261 313 302 266 307 256 337 282 319 177 320 317 6 78 98 150 198 159 143 211 147 209 141 211 236 347 124 101 103 109 107 112 123 118 118 137 145 148 143 141 137 132 130 130 127 124 122 123 122 122 117 113 112 111 112 113 114 114 113 113 112 113 114 115 115 116 118 125 129 129 126 125 125 125 125 126 127 128 130 131 131 130 132 134 132 128
285 291 311 183 172 65 216 128 96 342 39 21 250 116 256 294 12 216 234 147 198 141 123 98 85 85 68 104 125 133 36 33 268 186 0 7 91 87 94 107 114 114 113 116 119 118 126 144 149 150 142 140 136 136 134 130 128 126 128 126 124 121 120 117 114 113 115 117 119 119 117 117 118 119 118 116 116 115 120 123 128 130 131 128 127 124 125 127 129 130 134 135 133 135 134 130 128
355 6 0 39 34 79 96 32 258 76 98 249 274 210 327 319 219 264 234 195 159 140 149 102 98 63 36 80 46 54 202 7 80 36 67 131 112 106 96 106 108 109 114 106 107 115 124 137 145 149 144 142 140 139 136 133 131 133 133 130 124 123 123 122 121 120 120 122 124 126 126 124 124 125 122 113 105 90 91 94 92 119 127 128 124 124 123 124 128 132 135 136 135 133 132 132 128
71 47 167 71 221 28 72 28 83 132 135 208 306 277 246 233 267 234 227 170 148 110 160 37 55 285 125 82 139 102 59 60 42 102 121 202 144 123 117 113 108 103 101 102 107 115 122 140 142 152 149 143 143 140 139 136 135 136 136 133 131 131 130 131 129 128 127 128 126 127 130 129 128 124 116 107 100 97 95 95 115 124 126 118 122 122 120 124 129 132 134 137 133 132 131 129 127
39 302 101 99 112 309 109 163 141 110 167 210 103 285 332 3 336 72 123 144 262 308 27 128 83 340 91 110 85 111 168 92 33 24 81 79 118 116 114 112 107 103 103 111 119 121 130 137 144 155 152 143 143 142 139 139 135 137 138 137 137 137 136 134 133 132 134 132 127 126 131 129 125 122 118 118 114 118 117 115 112 115 117 128 120 120 122 125 131 135 139 136 130 128 127 124 118
60 41 357 99 273 181 56 75 120 185 222 156 95 333 299 334 39 4 53 318 315 29 56 60 152 173 33 355 161 93 338 101 201 71 109 138 120 117 115 110 106 106 109 109 116 104 117 133 138 146 150 148 142 143 143 141 137 137 138 138 139 139 137 137 137 137 135 135 134 132 132 131 131 132 131 129 129 124 117 119 116 114 126 137 124 121 125 124 133 141 140 135 131 125 126 121 116
265 44 356 27 22 56 177 158 204 188 271 167 220 225 316 357 111 40 350 358 334 27 26 93 118 106 72 316 50 64 325 215 114 166 95 122 117 114 117 112 106 107 112 115 117 109 118 124 122 137 151 150 145 146 145 142 141 141 141 140 141 141 139 139 138 138 137 136 138 138 137 136 136 138 138 137 132 127 128 122 119 115 126 131 123 117 117 126 134 143 132 126 121 123 121 124 108
60 133 290 105 246 35 273 206 230 158 270 156 243 277 301 335 283 65 310 72 315 31 340 80 355 88 123 1 127 309 17 23 109 102 113 115 109 111 111 110 105 108 109 106 105 122 123 126 121 140 149 147 149 142 138 141 143 142 143 143 142 142 142 141 141 137 137 139 140 141 143 141 142 141 134 134 136 133 129 128 128 129 136 135 129 127 121 125 131 133 130 124 125 127 124 108 102
342 87 274 80 169 42 43 246 254 227 285 254 252 247 255 262 248 220 216 300 347 41 86 267 323 93 217 36 39 296 31 36 88 111 117 114 119 116 112 109 110 108 110 116 104 97 110 122 122 135 141 141 141 145 141 136 142 144 146 145 144 145 144 143 142 138 140 142 143 142 141 140 142 143 138 156 137 126 127 129 129 131 136 141 137 129 124 126 128 132 133 133 128 122 114 111 98
30 88 250 140 123 245 354 293 89 235 220 248 212 237 233 245 237 202 197 220 175 121 176 23 32 109 119 107 21 345 64 72 109 109 117 116 120 113 107 104 110 116 120 111 103 108 114 130 117 128 122 125 131 137 143 144 145 143 146 146 146 147 145 143 141 142 142 143 145 141 139 139 139 143 143 141 130 128 129 128 130 132 136 142 141 132 127 125 127 131 132 128 124 119 117 109 98
21 9 137 77 27 241 245 276 265 312 269 298 291 224 233 242 215 209 203 183 175 145 318 38 39 112 95 55 206 271 122 129 126 122 120 120 119 113 110 110 111 121 121 118 120 109 108 132 135 122 106 111 116 124 138 144 145 144 146 146 146 147 145 142 143 144 145 147 147 143 139 136 139 138 137 141 139 132 131 131 130 133 136 143 145 132 129 128 124 124 123 123 121 120 116 110 106
32 13 9 108 190 167 240 197 289 279 285 309 282 289 209 187 182 219 220 158 186 135 180 124 185 142 74 119 288 156 130 94 121 124 121 118 119 118 116 113 118 112 119 123 114 101 98 106 111 125 117 115 121 126 136 140 141 147 148 146 148 150 145 144 145 147 147 147 148 143 141 140 139 139 138 142 136 134 133 133 132 136 140 146 150 147 133 126 120 113 114 118 121 121 118 114 107
118 105 85 99 226 126 202 45 259 283 325 276 226 270 112 136 177 209 198 184 175 140 244 185 160 101 130 180 205 148 153 130 136 126 121 118 126 120 117 119 118 123 125 114 106 100 90 85 93 109 132 128 122 117 131 141 144 146 149 145 154 149 147 150 147 148 148 148 146 144 143 145 142 143 140 141 142 143 142 138 139 141 144 147 156 161 147 132 129 124 121 120 122 123 120 115 109
116 180 124 212 73 151 146 249 261 348 295 246 255 276 298 199 230 211 147 146 182 171 211 152 139 140 60 105 196 172 164 147 138 119 121 121 119 120 123 126 122 127 124 113 109 108 98 103 101 98 104 114 120 122 126 140 146 139 131 150 145 141 147 149 149 148 149 147 145 146 147 146 146 145 143 146 149 144 143 143 143 145 147 151 161 168 162 141 136 134 128 125 126 127 123 119 115
351 148 84 124 103 41 248 140 201 136 262 247 261 322 318 263 191 154 166 159 199 178 108 85 162 136 212 167 207 192 157 152 139 119 118 120 117 123 133 131 125 120 117 105 109 125 121 120 108 103 105 101 102 106 113 150 142 126 143 167 154 151 143 159 156 148 153 150 150 153 151 151 153 153 151 149 142 141 145 145 144 150 151 155 163 173 176 157 141 138 134 128 132 135 128 117 108
148 81 82 100 265 146 275 196 232 113 264 198 275 326 305 316 229 146 233 161 133 117 118 161 145 201 209 176 211 156 134 130 125 120 115 109 109 111 121 127 127 124 122 132 132 130 133 128 121 114 110 102 100 103 119 127 146 136 164 162 145 142 167 171 158 152 153 153 154 159 151 154 163 163 159 151 150 148 147 145 151 152 153 156 164 173 186 175 148 143 134 131 134 144 120 108 103
72 81 35 33 274 156 261 197 149 246 260 272 291 0 356 340 317 40 71 101 123 144 69 30 261 339 159 224 138 118 118 122 120 116 110 106 114 114 115 119 126 122 127 134 125 137 138 129 126 119 115 118 105 99 103 115 149 148 157 149 142 156 163 157 154 160 147 119 147 178 151 142 147 135 162 150 158 151 151 151 158 162 155 160 166 172 180 209 182 143 138 141 138 123 113 107 102
63 95 114 277 198 130 215 200 192 222 267 293 334 327 141 86 11 126 78 47 78 79 66 1 39 46 75 90 100 107 112 116 122 121 118 115 115 121 124 125 129 140 140 140 132 132 140 137 131 126 123 123 119 114 105 117 118 120 125 131 142 144 146 120 163 156 145 125 135 204 184 150 136 148 148 159 141 162 165 166 171 167 162 165 171 175 172 188 230 164 131 138 129 110 95 66 82
108 113 96 218 192 237 169 210 237 343 276 284 291 322 171 165 118 294 91 119 118 84 28 56 68 64 77 91 108 113 118 118 123 127 130 127 130 125 132 125 129 126 143 133 135 139 124 134 135 133 131 130 127 127 110 105 103 104 94 96 123 145 142 131 100 95 66 133 162 199 186 131 134 145 156 157 155 172 177 174 174 169 175 172 177 178 174 176 200 242 116 113 110 107 92 74 73
230 121 240 249 209 244 227 236 261 198 281 294 310 313 134 151 62 352 122 132 94 132 128 37 115 136 128 123 117 124 126 127 135 145 141 138 134 134 137 133 120 133 127 148 145 125 127 121 129 137 134 132 130 125 102 103 113 110 98 88 128 85 86 119 110 101 103 116 146 226 172 133 113 137 162 169 167 176 195 185 177 176 171 179 181 181 174 177 187 210 149 99 84 78 96 85 63
273 91 204 232 214 225 267 209 249 269 226 273 283 291 110 17 121 102 154 107 31 269 225 167 168 161 149 141 136 135 137 140 140 143 137 130 118 115 136 137 143 133 136 122 130 146 129 122 119 127 137 132 129 125 117 116 112 117 129 140 139 129 137 144 131 125 142 143 182 215 152 114 109 121 145 182 152 159 136 112 206 158 191 184 179 162 165 175 162 143 76 93 93 85 87 71 46
106 208 207 214 137 258 261 240 250 256 258 232 312 98 159 172 63 142 158 143 198 203 214 239 161 154 148 150 154 143 147 144 149 151 148 148 153 153 136 111 74 107 147 143 154 129 123 121 118 117 135 138 119 94 98 139 118 110 110 143 136 121 131 140 128 139 133 147 172 174 150 103 122 126 131 133 159 150 163 184 182 165 173 173 135 158 144 134 142 177 150 122 110 94 98 106 69
230 307 246 230 221 238 273 171 217 216 328 320 325 283 104 73 132 207 263 208 286 291 111 154 169 163 159 147 144 150 153 158 158 158 149 146 148 150 150 149 144 146 144 146 132 129 122 118 119 123 127 123 115 112 93 83 102 85 98 125 134 126 127 137 149 162 169 165 170 174 147 139 142 153 157 162 173 163 183 182 184 169 165 147 149 172 170 161 172 185 166 148 115 113 103 102 102
151 247 298 298 185 225 256 272 238 293 285 273 213 312 180 129 144 200 226 239 288 303 107 120 102 101 136 149 162 156 156 155 160 161 164 154 151 153 151 140 126 115 116 138 135 134 133 120 126 126 125 127 124 123 115 110 102 126 156 156 122 147 142 141 140 163 158 180 163 178 157 156 163 172 180 184 186 183 192 183 154 165 162 172 167 174 176 172 179 202 169 143 127 104 101 100 114
185 264 248 269 196 236 261 260 269 245 257 267 342 283 233 179 174 115 237 312 340 75 100 108 113 120 117 135 146 144 144 145 137 143 105 99 114 108 90 109 130 134 134 150 149 130 135 130 128 131 133 139 136 133 125 116 120 114 95 101 134 156 135 153 158 158 158 149 164 169 156 162 179 178 180 195 182 193 185 159 160 187 188 167 157 181 173 178 199 193 193 179 144 151 158 196 133
204 227 319 278 270 273 266 289 267 186 255 215 257 288 322 218 344 174 230 320 121 114 102 117 126 136 148 154 153 152 149 146 138 141 145 127 124 114 133 145 147 144 156 148 138 137 130 128 134 136 134 137 136 126 132 126 125 115 115 111 117 111 53 1 174 164 157 154 168 182 183 181 185 187 191 191 190 200 190 153 181 179 227 169 170 189 180 181 193 195 212 181 175 184 215 214 161
167 225 227 258 271 302 295 217 345 170 215 176 187 241 95 347 52 244 330 180 129 111 118 129 143 157 159 159 145 145 150 155 158 140 111 129 148 144 153 149 148 151 142 142 145 148 144 132 133 136 141 143 137 136 146 135 130 127 129 114 97 119 117 100 319 166 152 161 171 189 207 201 196 200 193 194 208 201 205 110 169 221 255 210 172 177 166 192 192 202 207 200 194 188 218 187 176
228 246 315 293 304 241 248 311 302 175 282 165 165 164 27 333 63 230 250 165 139 126 136 145 152 159 160 149 150 144 149 170 157 147 153 163 171 163 160 157 152 150 148 161 160 154 142 146 141 142 141 143 143 148 151 146 139 140 142 138 119 114 149 124 201 304 110 58 61 210 264 310 336 317 227 228 223 213 203 118 138 205 237 267 144 168 178 192 202 216 244 226 201 177 241 228 228
273 50 309 303 350 4 11 298 336 166 268 120 160 91 4 331 194 309 229 132 134 132 144 156 159 157 154 158 157 164 177 172 162 173 178 172 153 163 154 173 152 153 180 156 159 151 154 154 142 146 141 144 150 158 161 161 139 130 135 149 154 167 148 108 111 290 56 49 40 16 1 336 14 318 312 274 334 342 27 65 115 207 204 165 224 201 162 173 210 213 250 305 310 64 296 277 269
358 46 40 329 357 7 347 316 10 152 300 75 282 251 271 257 249 287 175 129 115 110 130 148 152 155 165 172 173 170 163 168 185 192 180 172 171 170 154 183 170 150 156 151 135 152 155 148 138 139 144 149 156 152 154 156 146 119 109 105 117 80 76 102 119 98 129 109 82 287 252 319 355 27 14 13 266 255 303 206 156 177 214 167 140 268 175 168 149 126 356 35 313 323 308 322 332
326 279 66 54 11 293 303 37 299 92 356 40 68 230 285 265 287 248 177 154 143 147 153 159 160 166 176 185 180 186 201 199 192 195 188 182 170 171 162 166 177 152 128 141 158 160 150 150 146 146 156 153 150 158 163 160 123 107 104 90 92 118 108 101 92 76 83 132 173 236 180 107 224 138 114 209 324 36 292 254 213 186 173 146 123 268 247 189 158 137 108 88 25 11 352 329 306
11 54 307 328 76 288 306 355 7 299 325 56 71 358 240 271 264 210 181 156 150 150 161 166 168 175 185 185 187 194 204 207 215 214 195 187 177 174 173 171 170 162 154 159 152 147 154 164 163 152 148 143 148 152 132 107 101 110 127 127 111 120 108 92 92 104 99 71 205 230 110 104 52 67 95 59 257 53 203 233 117 37 176 189 168 205 221 194 160 136 139 117 58 356 347 317 306
356 64 260 344 21 312 0 3 1 356 314 347 147 232 319 339 314 255 203 162 161 156 169 174 176 182 185 189 190 190 186 216 220 217 200 189 197 183 181 169 171 172 159 153 153 156 157 168 141 133 146 144 127 98 91 80 86 103 113 113 111 84 81 90 104 115 103 117 205 255 69 80 59 51 97 168 174 219 238 119 69 215 259 143 183 216 211 112 109 185 147 158 150 201 290 314 328
324 16 97 234 69 359 42 307 20 358 77 272 31 199 248 231 314 288 301 173 144 161 178 182 182 186 194 191 187 186 196 196 207 206 198 191 194 191 190 179 164 164 163 154 157 160 163 151 148 148 138 125 124 119 94 82 75 85 87 86 77 69 85 114 116 100 104 130 125 121 89 108 101 83 112 280 157 230 254 1 77 330 348 54 86 78 73 131 171 181 178 184 184 189 221 251 277
256 317 21 338 310 231 268 55 290 40 6 230 317 298 265 314 308 320 263 291 178 187 185 187 185 183 178 195 206 207 205 207 213 201 177 189 191 187 180 164 157 152 156 155 148 130 123 139 136 132 125 118 107 100 90 80 81 76 67 71 69 68 71 78 90 86 85 78 62 58 65 65 67 69 85 49 307 321 30 52 53 347 304 52 80 159 233 221 139 140 139 154 203 195 205 185 138
188 173 171 137 77 290 317 249 273 23 305 63 266 232 285 320 347 318 261 242 197 224 73 108 145 157 171 190 206 210 215 224 231 123 174 193 190 177 173 156 156 157 155 153 143 135 138 136 126 117 125 124 113 97 92 83 69 79 93 70 63 53 67 83 62 79 65 60 50 68 78 73 65 85 98 128 111 66 54 61 112 210 52 64 93 58 46 5 83 158 191 183 192 212 173 151 143
78 96 104 191 167 285 281 277 261 337 86 273 251 253 264 268 227 248 237 195 249 238 221 194 187 178 188 200 210 216 223 224 214 174 179 199 190 162 153 147 157 149 161 163 149 154 159 155 141 137 142 137 129 124 121 131 111 72 44 70 111 85 104 82 65 46 61 48 49 55 71 74 75 59 49 58 48 64 71 56 28 25 70 73 64 73 58 91 170 149 131 132 157 209 237 158 148
170 128 125 182 195 118 226 253 357 323 135 277 332 260 286 257 287 266 290 141 219 222 218 218 211 200 199 203 212 214 223 251 172 174 193 200 189 169 155 161 162 161 193 176 167 164 162 157 148 144 142 144 145 149 159 147 156 166 157 177 143 129 106 105 100 51 68 68 63 55 60 77 74 65 65 76 66 73 70 61 43 37 49 58 72 70 86 70 14 356 54 65 56 54 62 22 47
65 177 181 14 287 245 285 273 338 343 42 264 344 15 289 277 283 222 226 184 237 219 201 207 195 196 196 202 203 209 213 218 204 206 192 204 194 188 177 186 197 198 175 178 175 149 152 162 159 151 155 151 157 161 153 151 139 152 142 182 146 116 55 187 125 67 70 83 64 55 59 63 74 63 53 68 76 67 81 76 60 54 46 61 75 59 48 48 38 35 45 82 94 87 97 2 39
112 92 59 242 242 37 305 296 345 343 71 311 33 348 291 311 299 278 191 202 255 256 237 239 207 197 195 196 192 196 210 207 207 200 200 191 192 194 192 195 197 189 177 179 160 159 161 167 171 163 161 155 156 180 155 107 105 104 71 120 81 96 137 103 66 51 59 63 49 44 44 46 60 58 50 75 78 72 79 85 83 68 59 59 85 77 52 38 37 45 48 56 62 92 100 69 346
329 145 160 186 186 239 166 258 315 306 32 70 46 12 326 348 349 336 341 79 335 325 310 271 273 245 237 247 225 209 203 202 205 203 189 183 193 202 196 191 181 191 188 185 171 173 171 177 181 173 165 162 163 169 134 125 102 77 85 64 82 78 61 67 84 46 32 69 75 65 25 30 58 58 41 56 76 78 69 73 75 72 66 54 69 74 61 46 42 47 49 61 47 90 107 121 81
319 234 187 200 177 172 269 338 36 23 338 1 60 340 309 298 288 239 283 342 2 325 355 261 243 241 225 217 213 212 226 221 210 202 194 193 197 183 180 190 194 196 196 189 180 180 170 168 169 178 164 150 161 164 148 140 140 138 138 132 134 116 134 143 160 169 179 138 154 179 48 32 58 60 44 57 71 76 68 65 68 72 71 61 63 73 69 54 41 44 34 60 53 18 70 77 61
102 269 194 181 147 122 118 61 83 5 200 298 29 185 265 324 331 302 328 334 301 297 224 239 275 263 214 228 224 207 212 214 219 223 213 197 186 180 194 196 199 197 192 173 182 186 175 165 171 176 173 164 160 160 164 145 142 157 169 171 169 168 167 213 183 177 158 186 127 117 102 33 41 77 53 62 73 81 86 77 77 76 75 71 67 69 63 60 55 47 34 49 40 37 50 70 38
221 237 121 120 106 125 184 140 144 199 256 300 36 98 174 303 295 269 314 333 310 320 312 311 255 218 243 238 237 225 219 215 210 211 205 197 189 189 194 201 193 193 168 173 183 186 175 171 171 178 179 169 165 159 172 170 159 172 173 177 175 166 172 185 176 169 139 126 127 139 108 66 42 55 83 65 78 87 91 83 87 83 80 79 75 70 75 70 72 57 54 56 46 44 51 73 65
218 172 130 146 154 187 138 124 143 79 120 277 331 336 290 260 267 314 13 355 328 309 302 306 334 319 260 239 238 233 224 217 210 209 206 196 191 200 202 198 187 159 172 183 187 176 173 180 176 170 179 170 168 168 169 189 168 171 174 169 183 211 189 162 130 120 137 132 129 116 108 66 52 43 65 88 74 92 87 93 86 86 85 83 87 87 80 75 75 76 67 60 61 50 48 56 65
273 138 81 78 72 68 107 99 96 4 67 268 269 231 224 285 275 325 334 11 286 275 297 317 306 324 317 306 273 238 229 223 215 214 207 201 200 203 193 144 149 172 163 165 170 173 184 180 177 174 184 183 173 173 173 181 174 156 161 177 178 196 160 99 125 130 137 138 151 157 128 103 87 86 48 69 85 94 102 97 95 96 99 95 87 91 85 76 73 74 74 81 79 75 49 60 73
114 87 73 27 42 36 30 63 95 71 11 257 239 275 170 274 260 228 226 237 241 316 310 316 334 328 312 298 289 270 232 220 213 214 209 207 199 153 144 169 158 147 163 167 177 189 190 187 181 181 190 182 171 176 173 183 176 163 175 178 181 178 183 158 138 141 135 132 161 185 169 160 129 125 116 93 101 117 111 110 109 104 98 100 102 96 90 92 82 81 78 76 73 78 69 69 63
131 59 115 59 345 10 40 346 40 90 275 258 296 202 127 189 296 316 246 297 292 242 266 301 312 312 307 296 296 297 240 222 221 211 215 134 150 160 154 159 165 163 161 176 188 188 193 189 184 184 192 189 179 175 176 182 178 179 179 178 181 185 174 176 177 181 182 178 179 181 183 133 145 124 107 123 106 116 122 116 118 111 105 98 92 102 108 103 98 85 72 76 78 77 80 78 74
70 72 46 102 261 40 312 5 262 202 199 267 339 166 71 240 223 265 322 321 318 280 220 258 286 303 307 303 336 339 333 212 203 192 160 169 169 172 182 168 158 173 182 184 187 188 190 190 186 186 196 192 188 176 182 182 181 187 183 184 192 178 186 185 186 187 184 179 177 164 161 180 173 156 195 151 169 147 130 124 124 118 112 109 114 100 104 105 99 91 85 79 81 84 88 89 76
104 147 130 81 94 39 244 284 220 310 290 264 206 308 245 251 298 236 278 306 286 357 23 325 279 286 314 341 8 29 18 6 163 152 185 181 177 169 179 191 192 186 185 186 184 185 190 191 189 193 197 189 184 180 187 183 193 193 186 182 184 178 191 190 193 190 192 185 174 180 180 181 181 190 175 190 180 162 145 136 125 122 124 126 124 119 116 108 101 101 98 88 92 105 89 88 95
207 134 146 184 144 160 247 198 220 216 209 307 292 84 232 116 204 296 301 278 330 346 303 291 284 278 294 322 35 45 29 5 22 198 188 172 173 169 179 186 194 215 226 200 189 191 187 194 192 195 194 194 186 190 186 191 195 197 191 186 180 184 188 190 199 198 186 183 187 183 189 175 181 191 185 181 156 152 147 135 136 129 131 128 125 124 119 106 105 95 88 90 80 101 88 95 94
151 160 85 89 233 141 233 206 151 216 174 19 215 211 186 147 260 273 306 351 346 340 330 299 302 347 354 30 25 26 29 20 11 64 132 244 194 172 172 183 189 179 178 193 212 214 208 207 202 198 197 191 190 189 195 193 197 195 193 185 188 188 195 193 193 199 204 195 187 186 189 186 194 182 180 152 172 153 153 148 139 138 140 140 141 138 128 116 114 98 84 89 90 120 94 89 110
250 112 181 207 158 111 85 97 24 95 49 258 169 323 296 294 20 27 351 354 306 331 314 329 15 10 50 43 21 18 23 21 29 33 2 157 144 199 182 173 175 174 173 187 183 178 193 211 230 228 220 206 198 198 197 196 197 193 202 195 186 186 193 193 195 200 200 199 191 198 189 194 182 178 175 168 157 162 152 149 145 148 144 132 126 123 121 124 121 111 122 117 123 145 132 143 158
89 144 239 152 118 119 131 217 353 58 176 256 35 212 203 88 231 285 124 298 283 310 310 327 7 21 52 30 22 21 20 10 13 37 55 19 299 174 169 179 179 181 174 163 171 178 189 196 195 199 205 212 207 200 207 205 199 200 201 202 198 194 195 203 201 200 194 186 202 197 191 163 188 189 175 169 153 154 154 150 142 143 140 143 141 131 117 121 104 95 114 104 133 142 130 131 174
151 191 197 118 274 274 323 87 253 218 259 270 315 284 264 192 227 172 199 207 225 345 342 16 31 31 39 22 15 18 29 35 26 24 21 22 32 348 218 195 184 172 163 166 172 176 177 176 189 209 219 217 202 199 204 203 207 209 207 204 198 198 202 205 207 198 181 194 200 196 195 197 170 169 161 152 152 154 151 149 142 147 151 154 139 129 125 108 106 103 101 93 98 105 97 37 235
16 58 30 16 96 161 120 193 176 123 248 65 292 50 234 214 222 196 176 199 219 343 13 33 14 21 18 20 17 23 30 30 28 36 38 34 24 16 355 226 195 177 162 167 167 170 180 179 182 194 199 207 211 208 200 205 206 203 211 212 217 206 202 201 202 191 193 203 205 194 194 183 188 170 172 160 158 157 155 150 155 150 156 142 127 111 109 118 106 108 125 117 137 109 101 329 326
341 31 338 7 36 217 107 45 115 195 178 180 198 304 279 271 216 191 168 192 207 181 119 17 8 360 358 5 17 28 39 39 32 26 33 39 38 31 24 9 14 47 171 169 172 180 188 179 186 186 190 199 206 209 200 216 207 236 225 213 210 207 211 208 204 199 204 210 203 196 194 192 156 179 163 160 160 160 157 155 154 164 145 135 116 104 112 113 104 115 123 130 127 129 132 145 206
174 171 205 165 127 110 54 273 22 55 98 221 131 243 271 270 181 235 166 203 193 234 172 100 358 5 352 347 358 12 32 23 27 32 40 30 28 40 42 37 24 33 41 72 250 185 175 191 193 192 195 198 201 204 206 196 175 198 218 234 231 221 215 209 208 205 210 211 204 199 187 158 182 181 169 164 161 156 151 149 147 136 112 109 114 118 129 110 108 100 96 120 113 119 122 145 156